Location: Unspecified
(0.0000°N, 0.0000°E)
Time: 22:56:17
(UTC+00:00)

Vanguard 3 - Visible Passes

Search period start: 19 November 2019 00:00
Search period end: 29 November 2019 00:00
Orbit: 508 x 3263 km, 33.4° (Epoch: 18 November)

Date Brightness Start Highest point End Pass type
(mag) Time Alt. Az. Time Alt. Az. Time Alt. Az.
19 Nov 9.7 19:19:05 10° NNW 19:27:17 20° NNE 19:27:52 20° NNE visible
20 Nov 10.1 18:02:07 10° NNW 18:10:29 16° N 18:16:56 10° NE visible
20 Nov 9.7 20:17:25 10° NW 20:23:06 25° NNW 20:23:06 25° NNW visible
21 Nov 9.4 19:01:01 10° NNW 19:11:30 26° NNE 19:13:50 24° NE visible
21 Nov 10.3 21:16:23 10° NW 21:18:27 16° NW 21:18:27 16° NW visible
22 Nov 9.0 19:59:49 10° NW 20:09:18 41° N 20:09:18 41° N visible
23 Nov 9.3 18:43:04 10° NW 18:55:36 32° NNE 19:00:13 23° ENE visible
23 Nov 9.6 20:59:16 10° NW 21:04:51 30° WNW 21:04:51 30° WNW visible
24 Nov 8.4 19:42:13 10° NW 19:55:20 59° NNE 19:55:54 58° NE visible
24 Nov 10.6 22:00:08 10° W 22:00:33 11° W 22:00:33 11° W visible
25 Nov 9.5 18:25:09 10° NW 18:39:32 40° NNE 18:47:03 15° E visible
25 Nov 8.8 20:42:10 10° WNW 20:51:42 53° W 20:51:42 53° W visible
26 Nov 8.6 19:24:37 10° NW 19:39:09 72° NNE 19:42:58 40° ESE visible
26 Nov 10.2 21:43:44 10° W 21:47:38 20° W 21:47:38 20° W visible
27 Nov 9.4 18:07:17 10° NW 18:23:18 48° NNE 18:32:54 10° E visible
27 Nov 8.7 20:25:04 10° WNW 20:37:34 58° SW 20:38:59 52° S visible
28 Nov 8.8 19:07:03 10° NW 19:22:46 84° NE 19:30:24 15° ESE visible
28 Nov 9.9 21:27:23 10° W 21:35:05 24° SW 21:35:05 24° SW visible
